Regional Weather Roundup
Issued by NWS

Home | Current Version | Previous Version | Text Only | Print | Product List | Glossary On
Versions: 1 2 3 4 5 6 7 8 9 10 11 12 13 14 15 16 17 18 19 20 21 22 23 24 25 26 27 28 29 30 31 32 33 34 35 36 37 38 39 40 41 42 43 44 45 46 47 48 49 50
000
ASUS42 KKEY 270610
RWRKEY

FLORIDA REGIONAL WEATHER ROUNDUP FOR THE FLORIDA KEYS
NATIONAL WEATHER SERVICE KEY WEST FLORIDA
200 AM EDT FRI MAY 27 2016

...SOUTH FLORIDA AND THE KEYS...

CITY           SKY/WX    TMP DP  RH WIND       PRES   REMARKS
FORT MYERS     CLEAR     71  65  81 E6        30.02F
SW REGIONAL AP CLEAR     71  63  75 NE6       30.03F
NAPLES         CLEAR     72  64  76 NE7       30.01F
MIAMI          PTCLDY    78  67  68 NE6       30.00F
WEST KENDALL   MOCLDY    76  67  73 NE9       30.00F
HOMESTEAD      PTCLDY    78  69  72 E9        29.99S
MARATHON       PTCLDY    80  66  62 E7        29.98F
BOCA CHICA NAS CLOUDY    77  71  82 NE7       29.98F
KEY WEST INTL  PTCLDY    79  71  76 NE7       29.98F

...INTERNATIONAL WEATHER...

CITY           SKY/WX    TMP DP  RH WIND       PRES   REMARKS
NASSAU BAHAMAS PTCLDY    75  64  69 CALM      29.98F
CANCUN MEXICO  PTCLDY    82  75  78 E7        29.92F
COZUMEL MEXICO PTCLDY    72  72 100 CALM      29.92S

ADJACENT COASTAL WATERS...

STATION/POSITION TIME  SKY/WX   TEMP    WIND        PRES    WAVE
                                AIR SEA DIR/SP/G            HT/PER
                 (UTC)          (F)     (DEG/KT/KT) (MB)    (FT/S)
PULASKI SHOAL LI 0600            80      80/ 10/ 11 1015.2F
SAND KEY         0550            80     120/  9/ 12 1015.6F
SOMBRERO KEY     NOT AVBL
LONG KEY         0500            81 83   90/ 14/ 15 1015.9S
MOLASSES REEF    0400            80 82   80/ 14/ 16 1015.8
FOWEY ROCKS      0600            79 82   70/ 20/ 21 1016.0F

$$



USA.gov is the U.S. government's official web portal to all federal, state and local government web resources and services.